TimeEST,TemperatureF,Dew PointF,Humidity,Sea Level PressureIn,VisibilityMPH,Wind Direction,Wind SpeedMPH,Gust SpeedMPH,PrecipitationIn,Events,Conditions,WindDirDegrees,DateUTC
12:58 AM,22.3,18.3,85,30.33,10.0,Calm,Calm,-,N/A,,Clear,0,2013-11-14 05:58:00
1:58 AM,20.8,18.1,89,30.31,10.0,North,2.3,-,N/A,,Clear,360,2013-11-14 06:58:00
2:58 AM,28.4,19.6,70,30.31,10.0,WSW,8.1,-,N/A,,Clear,250,2013-11-14 07:58:00
3:58 AM,27.0,19.6,74,30.31,10.0,WSW,2.3,-,N/A,,Clear,250,2013-11-14 08:58:00
4:58 AM,25.5,18.7,75,30.31,10.0,NW,1.2,-,N/A,,Clear,310,2013-11-14 09:58:00
5:58 AM,22.8,18.9,85,30.31,10.0,Calm,Calm,-,N/A,,Clear,0,2013-11-14 10:58:00
6:58 AM,20.5,18.3,91,30.32,10.0,NNW,1.2,-,N/A,,Clear,340,2013-11-14 11:58:00
7:58 AM,25.5,20.5,81,30.33,10.0,North,1.2,-,N/A,,Clear,350,2013-11-14 12:58:00
8:58 AM,33.1,21.2,62,30.33,10.0,Calm,Calm,-,N/A,,Clear,0,2013-11-14 13:58:00
9:58 AM,41.0,16.7,37,30.32,10.0,SW,9.2,-,N/A,,Clear,230,2013-11-14 14:58:00
10:58 AM,44.8,15.1,30,30.30,10.0,SW,9.2,-,N/A,,Clear,230,2013-11-14 15:58:00
11:58 AM,47.8,14.5,26,30.27,10.0,SW,9.2,-,N/A,,Clear,220,2013-11-14 16:58:00
12:58 PM,51.4,13.6,22,30.25,10.0,SW,10.4,-,N/A,,Clear,230,2013-11-14 17:58:00
1:58 PM,51.6,12.9,21,30.22,10.0,SSW,10.4,-,N/A,,Partly Cloudy,210,2013-11-14 18:58:00
2:58 PM,52.2,13.3,21,30.22,10.0,SW,10.4,-,N/A,,Clear,230,2013-11-14 19:58:00
3:58 PM,51.8,12.7,21,30.21,10.0,WSW,8.1,-,N/A,,Clear,240,2013-11-14 20:58:00
4:58 PM,50.5,12.4,22,30.22,10.0,South,4.6,-,N/A,,Clear,170,2013-11-14 21:58:00
5:58 PM,40.1,17.2,40,30.24,10.0,Calm,Calm,-,N/A,,Clear,0,2013-11-14 22:58:00
6:58 PM,37.0,17.1,44,30.25,10.0,Calm,Calm,-,N/A,,Clear,0,2013-11-14 23:58:00
7:58 PM,33.8,18.1,53,30.24,10.0,SSE,1.2,-,N/A,,Clear,160,2013-11-15 00:58:00
8:58 PM,31.5,18.7,59,30.25,10.0,Variable,1.2,-,N/A,,Clear,0,2013-11-15 01:58:00
9:58 PM,30.0,19.6,65,30.24,10.0,Calm,Calm,-,N/A,,Clear,0,2013-11-15 02:58:00
10:58 PM,29.5,19.0,65,30.23,10.0,Calm,Calm,-,N/A,,Clear,0,2013-11-15 03:58:00
11:58 PM,28.6,19.8,70,30.23,10.0,NE,1.2,-,N/A,,Clear,40,2013-11-15 04:58:00